Location: Blazny
(46.0612°N, 84.4033°W)
Time: 08:55:57
(UTC-04:00)

ARIANE 6 FM1 Upper Stage - Pass Details

Date: 17 September 2024
Orbit: 564 x 594 km, 62.0° (Epoch: 03 October)

Event Time Altitude Azimuth Distance (km) Brightness Sun altitude
Exits shadow 04:41:26 - 328° (NNW) 2,482 6.0 -26.4°
Reaches altitude 10° 04:43:09 10° 340° (NNW) 1,934 5.5 -26.2°
Maximum altitude 04:46:29 21° 30° (NNE) 1,369 5.3 -25.7°
Drops below altitude 10° 04:49:48 10° 79° (E) 1,935 6.3 -25.2°
Sets 04:52:33 0° 96° (E) 2,835 7.0 -24.8°
